Change the Weather History Date:

Tuesday, July 8, 2014

  Actual Average Record
Temperature  
Mean Temperature 84 °F -  
Max Temperature 95 °F 91 °F 100 °F (1931)
Min Temperature 73 °F 72 °F 60 °F (1975)
Cooling Degree Days 19    
Growing Degree Days 34 (Base 50)    
Moisture  
Dew Point 69 °F    
Average Humidity 63    
Maximum Humidity 88    
Minimum Humidity 28    
Precipitation  
Precipitation 0.00 in - - ()
Sea Level Pressure  
Sea Level Pressure 30.08 in    
Wind  
Wind Speed 1 mph (SSW)    
Max Wind Speed 13 mph    
Max Gust Speed 20 mph    
Visibility 10 miles    
Events      
Averages and records for this station are not official NWS values.
T = Trace of Precipitation, MM = Missing Value Source: NWS Daily Summary

Daily Weather History Graph

Daily Weather History Graph

Search for Another Location

Airport or City:

Trip Planner

Search our weather history database for the weather conditions in past years. The results will help you decide how hot, cold, wet, or windy it might be!

Date:

Astronomy

Jul. 08, 2014 Rise Set
Actual Time 6:28 AM EDT 8:33 PM EDT
Civil Twilight 6:00 AM EDT 9:00 PM EDT
Nautical Twilight 5:27 AM EDT 9:34 PM EDT
Astronomical Twilight 4:51 AM EDT 10:10 PM EDT
Moon 4:45 PM EDT (7/8) 2:52 AM EDT (7/8)
Length of Visible Light 15h 00m
Length of Day
14h 04m
Waxing Gibbous, 81% of the Moon is Illuminated
Jul 8
Waxing Gibbous
Jul 12
Full
Jul 18
Last Quarter
Jul 26
New
Aug 3
First Quarter

Hourly Weather History & Observations

Time (EDT) Temp. Heat Index Dew Point Humidity Pressure Visibility Wind Dir Wind Speed Gust Speed Precip Events Conditions
12:10 AM 78.8 °F - 69.8 °F 74% 30.08 in 10.0 mi Calm Calm - N/A   Clear
12:30 AM 78.8 °F - 71.6 °F 78% 30.08 in 10.0 mi Calm Calm - N/A   Clear
12:50 AM 78.8 °F - 71.6 °F 78% 30.08 in 10.0 mi Calm Calm - N/A   Clear
1:10 AM 78.8 °F - 71.6 °F 78% 30.08 in 10.0 mi Calm Calm - N/A   Clear
1:30 AM 78.8 °F - 71.6 °F 78% 30.08 in 10.0 mi Calm Calm - N/A   Clear
1:50 AM 78.8 °F - 71.6 °F 78% 30.08 in 10.0 mi Calm Calm - N/A   Clear
2:10 AM 77.0 °F - 71.6 °F 83% 30.09 in 10.0 mi Calm Calm - N/A   Clear
2:30 AM 77.0 °F - 69.8 °F 78% 30.08 in 10.0 mi Calm Calm - N/A   Clear
2:50 AM 77.0 °F - 69.8 °F 78% 30.08 in 10.0 mi Calm Calm - N/A   Clear
3:10 AM 77.0 °F - 69.8 °F 78% 30.08 in 10.0 mi Calm Calm - N/A   Clear
3:30 AM 77.0 °F - 69.8 °F 78% 30.07 in 10.0 mi Calm Calm - N/A   Clear
3:50 AM 77.0 °F - 69.8 °F 78% 30.07 in 10.0 mi Calm Calm - N/A   Clear
4:10 AM 75.2 °F - 69.8 °F 83% 30.07 in 10.0 mi Calm Calm - N/A   Clear
4:30 AM 75.2 °F - 69.8 °F 83% 30.07 in 10.0 mi Calm Calm - N/A   Clear
4:50 AM 77.0 °F - 69.8 °F 78% 30.07 in 10.0 mi Calm Calm - N/A   Clear
5:10 AM 73.4 °F - 69.8 °F 88% 30.07 in 10.0 mi Calm Calm - N/A   Clear
5:30 AM 75.2 °F - 69.8 °F 83% 30.07 in 10.0 mi Calm Calm - N/A   Clear
5:50 AM 73.4 °F - 69.8 °F 88% 30.07 in 10.0 mi Calm Calm - N/A   Clear
6:10 AM 73.4 °F - 69.8 °F 88% 30.07 in 10.0 mi Calm Calm - N/A   Clear
6:30 AM 73.4 °F - 69.8 °F 88% 30.08 in 10.0 mi Calm Calm - N/A   Clear
6:50 AM 75.2 °F - 69.8 °F 83% 30.08 in 10.0 mi Calm Calm - N/A   Clear
7:10 AM 77.0 °F - 69.8 °F 78% 30.09 in 10.0 mi Calm Calm - N/A   Clear
7:30 AM 77.0 °F - 69.8 °F 78% 30.10 in 10.0 mi Calm Calm - N/A   Clear
7:50 AM 78.8 °F - 69.8 °F 74% 30.11 in 10.0 mi Calm Calm - N/A   Clear
8:10 AM 78.8 °F - 69.8 °F 74% 30.12 in 10.0 mi Calm Calm - N/A   Clear
8:30 AM 80.6 °F 83.9 °F 69.8 °F 70% 30.13 in 10.0 mi Calm Calm - N/A   Clear
8:50 AM 80.6 °F 83.9 °F 69.8 °F 70% 30.14 in 10.0 mi Calm Calm - N/A   Clear
9:10 AM 82.4 °F 86.3 °F 69.8 °F 66% 30.14 in 10.0 mi Calm Calm - N/A   Clear
9:30 AM 82.4 °F 86.3 °F 69.8 °F 66% 30.14 in 10.0 mi Calm Calm - N/A   Clear
9:50 AM 84.2 °F 88.4 °F 69.8 °F 62% 30.14 in 10.0 mi Calm Calm - N/A   Clear
10:10 AM 86.0 °F 90.4 °F 69.8 °F 58% 30.13 in 10.0 mi Calm Calm - N/A   Clear
10:30 AM 86.0 °F 89.4 °F 68.0 °F 55% 30.13 in 10.0 mi Calm Calm - N/A   Clear
10:50 AM 87.8 °F 91.4 °F 68.0 °F 52% 30.13 in 10.0 mi Calm Calm - N/A   Clear
11:10 AM 87.8 °F 90.4 °F 66.2 °F 49% 30.13 in 10.0 mi Calm Calm - N/A   Clear
11:30 AM 89.6 °F 92.2 °F 66.2 °F 46% 30.12 in 10.0 mi Calm Calm - N/A   Clear
11:50 AM 89.6 °F 92.2 °F 66.2 °F 46% 30.12 in 10.0 mi Calm Calm - N/A   Clear
12:10 PM 91.4 °F 94.0 °F 66.2 °F 43% 30.11 in 10.0 mi SSW 8.1 mph - N/A   Clear
12:30 PM 91.4 °F 94.0 °F 66.2 °F 43% 30.11 in 10.0 mi Calm Calm - N/A   Clear
12:50 PM 91.4 °F 93.2 °F 64.4 °F 41% 30.10 in 10.0 mi Calm Calm - N/A   Scattered Clouds
1:10 PM 91.4 °F 93.2 °F 64.4 °F 41% 30.10 in 10.0 mi Calm Calm - N/A   Scattered Clouds
1:30 PM 93.2 °F 94.9 °F 64.4 °F 38% 30.09 in 10.0 mi Calm Calm - N/A   Scattered Clouds
1:50 PM 93.2 °F 96.2 °F 66.2 °F 41% 30.08 in 10.0 mi Calm Calm - N/A   Scattered Clouds
2:10 PM 93.2 °F 94.9 °F 64.4 °F 38% 30.07 in 10.0 mi Calm Calm - N/A   Scattered Clouds
2:30 PM 93.2 °F 94.9 °F 64.4 °F 38% 30.07 in 10.0 mi Calm Calm - N/A   Clear
2:50 PM 95.0 °F 97.0 °F 64.4 °F 36% 30.07 in 10.0 mi Calm Calm - N/A   Scattered Clouds
3:10 PM 95.0 °F 96.0 °F 62.6 °F 34% 30.06 in 10.0 mi Calm Calm - N/A   Clear
3:30 PM 95.0 °F 96.0 °F 62.6 °F 34% 30.06 in 10.0 mi Calm Calm - N/A   Clear
3:50 PM 95.0 °F 96.0 °F 62.6 °F 34% 30.05 in 10.0 mi Calm Calm - N/A   Clear
4:10 PM 95.0 °F 95.2 °F 60.8 °F 32% 30.04 in 10.0 mi SSW 8.1 mph - N/A   Scattered Clouds
4:30 PM 95.0 °F 94.4 °F 59.0 °F 30% 30.04 in 10.0 mi SW 6.9 mph - N/A   Scattered Clouds
4:50 PM 95.0 °F 94.4 °F 59.0 °F 30% 30.04 in 10.0 mi WSW 5.8 mph 9.2 mph N/A   Scattered Clouds
5:10 PM 95.0 °F 93.7 °F 57.2 °F 28% 30.03 in 10.0 mi Calm Calm - N/A   Clear
5:30 PM 95.0 °F 93.7 °F 57.2 °F 28% 30.03 in 10.0 mi Calm Calm - N/A   Clear
5:50 PM 89.6 °F 98.2 °F 73.4 °F 59% 30.03 in 10.0 mi Calm Calm - N/A   Clear
6:10 PM 87.8 °F 95.6 °F 73.4 °F 62% 30.03 in 10.0 mi Calm Calm - N/A   Scattered Clouds
6:30 PM 87.8 °F 95.6 °F 73.4 °F 62% 30.04 in 10.0 mi South 12.7 mph 19.6 mph N/A   Scattered Clouds
6:50 PM 87.8 °F 95.6 °F 73.4 °F 62% 30.04 in 10.0 mi South 11.5 mph 17.3 mph N/A   Clear
7:10 PM 87.8 °F 95.6 °F 73.4 °F 62% 30.03 in 10.0 mi South 10.4 mph 18.4 mph N/A   Clear
7:30 PM 87.8 °F 95.6 °F 73.4 °F 62% 30.03 in 10.0 mi South 12.7 mph 19.6 mph N/A   Clear
7:50 PM 86.0 °F 93.4 °F 73.4 °F 66% 30.05 in 10.0 mi South 11.5 mph 17.3 mph N/A   Clear
8:10 PM 86.0 °F 93.4 °F 73.4 °F 66% 30.06 in 10.0 mi South 11.5 mph - N/A   Clear
8:30 PM 86.0 °F 93.4 °F 73.4 °F 66% 30.07 in 10.0 mi South 11.5 mph 19.6 mph N/A   Clear
8:50 PM 86.0 °F 93.4 °F 73.4 °F 66% 30.08 in 10.0 mi South 9.2 mph - N/A   Clear
9:10 PM 84.2 °F 90.9 °F 73.4 °F 70% 30.08 in 10.0 mi South 6.9 mph - N/A   Clear
9:30 PM 84.2 °F 90.9 °F 73.4 °F 70% 30.08 in 10.0 mi SSW 8.1 mph - N/A   Clear
9:50 PM 84.2 °F 90.9 °F 73.4 °F 70% 30.09 in 10.0 mi South 6.9 mph - N/A   Clear
10:10 PM 84.2 °F 89.6 °F 71.6 °F 66% 30.09 in 10.0 mi SSW 8.1 mph - N/A   Clear
10:30 PM 82.4 °F 87.2 °F 71.6 °F 70% 30.09 in 10.0 mi SSW 8.1 mph - N/A   Clear
10:50 PM 82.4 °F 87.2 °F 71.6 °F 70% 30.09 in 10.0 mi SSW 8.1 mph - N/A   Clear
11:10 PM 82.4 °F 87.2 °F 71.6 °F 70% 30.09 in 10.0 mi SSW 5.8 mph - N/A   Clear
11:30 PM 82.4 °F 87.2 °F 71.6 °F 70% 30.09 in 10.0 mi SSW 6.9 mph - N/A   Clear
11:50 PM 82.4 °F 87.2 °F 71.6 °F 70% 30.08 in 10.0 mi SSW 8.1 mph - N/A   Clear